Weather History for Kalispell, MT

Change the Weather History Date:

Saturday, February 23, 2013

  Actual Average Record
Temperature  
Mean Temperature 31 °F 28 °F  
Max Temperature 37 °F 38 °F 56 °F (1981)
Min Temperature 25 °F 19 °F -11 °F (1960)
Degree Days  
Heating Degree Days 34 37  
Month to date heating degree days 755 881  
Since 1 July heating degree days 5128 5672  
Cooling Degree Days 0 0  
Month to date cooling degree days 0 0  
Year to date cooling degree days 0 0  
Moisture  
Dew Point 24 °F    
Average Humidity 73    
Maximum Humidity 89    
Minimum Humidity 56    
Precipitation  
Precipitation T in 0.04 in 0.48 in (1910)
Month to date precipitation 0.18 0.79  
Year to date precipitation 1.05 2.12  
Snow  
Snow T in - - ()
Month to date snowfall 1.3  
Year to date snowfall 7.3  
Since 1 July snowfall 16.1  
Snow Depth 0.00 in    
Sea Level Pressure  
Sea Level Pressure 29.86 in    
Wind  
Wind Speed 8 mph (South)    
Max Wind Speed 17 mph    
Max Gust Speed 23 mph    
Visibility 10 miles    
Events Snow    
T = Trace of Precipitation, MM = Missing Value Source: NWS Daily Summary

Daily Weather History Graph

Daily Weather History Graph

Search for Another Location

Airport:

Trip Planner

Search our weather history database for the weather conditions in past years. The results will help you decide how hot, cold, wet, or windy it might be!

Date:

Astronomy

Feb. 23, 2013 Rise Set
Actual Time 7:29 AM MST 6:12 PM MST
Civil Twilight 6:57 AM MST 6:43 PM MST
Nautical Twilight 6:21 AM MST 7:20 PM MST
Astronomical Twilight 5:45 AM MST 7:56 PM MST
Moon 4:22 PM MST (2/23) 6:00 AM MST (2/23)
Length of Visible Light 11h 46m
Length of Day
10h 43m
Waxing Gibbous, 95% of the Moon is Illuminated
Feb 23
Waxing Gibbous
Feb 25
Full
Mar 4
Last Quarter
Mar 11
New
Mar 19
First Quarter

Hourly Weather History & Observations

Time (MST) Temp. Windchill Dew Point Humidity Pressure Visibility Wind Dir Wind Speed Gust Speed Precip Events Conditions
12:55 AM 34.0 °F 28.0 °F 30.9 °F 89% 29.60 in 10.0 mi SSW 6.9 mph - N/A   Overcast
1:55 AM 35.1 °F 28.6 °F 30.0 °F 82% 29.59 in 10.0 mi South 8.1 mph - N/A   Overcast
2:55 AM 36.0 °F 26.7 °F 27.0 °F 70% 29.62 in 9.0 mi WSW 15.0 mph 23.0 mph 0.00 in Snow Light Snow
3:05 AM 35.6 °F 28.6 °F 28.4 °F 75% 29.57 in 9.0 mi WNW 9.2 mph 21.9 mph 0.00 in   Scattered Clouds
3:55 AM 34.0 °F 28.0 °F 25.0 °F 70% 29.65 in 10.0 mi SSE 6.9 mph - 0.00 in   Clear
4:55 AM 34.0 °F 26.6 °F 23.0 °F 64% 29.68 in 10.0 mi SSW 9.2 mph - N/A   Overcast
5:55 AM 32.0 °F 24.8 °F 21.0 °F 64% 29.69 in 10.0 mi SW 8.1 mph - N/A   Mostly Cloudy
6:55 AM 32.0 °F 24.2 °F 21.0 °F 64% 29.73 in 10.0 mi SW 9.2 mph - N/A   Mostly Cloudy
7:55 AM 30.9 °F 22.2 °F 19.9 °F 64% 29.75 in 10.0 mi SSW 10.4 mph - N/A   Overcast
8:55 AM 30.9 °F 21.7 °F 19.9 °F 64% 29.79 in 10.0 mi SSW 11.5 mph - N/A   Mostly Cloudy
9:55 AM 32.0 °F 23.0 °F 19.9 °F 61% 29.82 in 10.0 mi SW 11.5 mph - N/A   Overcast
10:55 AM 33.1 °F 24.9 °F 19.9 °F 59% 29.85 in 10.0 mi SW 10.4 mph - N/A   Overcast
11:55 AM 33.1 °F 26.9 °F 21.0 °F 61% 29.87 in 10.0 mi WSW 6.9 mph - N/A   Overcast
12:47 PM 32.0 °F 24.8 °F 23.0 °F 69% 29.82 in 5.0 mi South 8.1 mph - 0.00 in Snow Light Snow
12:55 PM 32.0 °F 25.6 °F 24.1 °F 73% 29.90 in 7.0 mi SE 6.9 mph - 0.00 in Snow Light Snow
1:55 PM 30.9 °F 21.7 °F 26.1 °F 82% 29.91 in 10.0 mi SE 11.5 mph - 0.00 in   Overcast
2:55 PM 32.0 °F 23.0 °F 25.0 °F 75% 29.93 in 10.0 mi SE 11.5 mph - 0.00 in Snow Light Snow
3:55 PM 33.1 °F 26.9 °F 25.0 °F 72% 29.96 in 10.0 mi SSE 6.9 mph - 0.00 in   Overcast
4:55 PM 34.0 °F 28.0 °F 25.0 °F 70% 29.99 in 10.0 mi SSE 6.9 mph - N/A   Overcast
5:55 PM 33.1 °F 26.1 °F 25.0 °F 72% 30.02 in 10.0 mi SSE 8.1 mph - N/A   Overcast
6:55 PM 32.0 °F 25.6 °F 25.0 °F 75% 30.05 in 10.0 mi South 6.9 mph - N/A   Overcast
7:55 PM 30.9 °F 25.2 °F 25.0 °F 79% 30.09 in 10.0 mi South 5.8 mph - N/A   Overcast
8:55 PM 28.0 °F 24.2 °F 23.0 °F 81% 30.12 in 10.0 mi South 3.5 mph - N/A   Mostly Cloudy
9:55 PM 25.0 °F 20.7 °F 19.9 °F 81% 30.14 in 10.0 mi South 3.5 mph - N/A   Mostly Cloudy
10:55 PM 25.0 °F 19.3 °F 21.0 °F 85% 30.17 in 10.0 mi SSW 4.6 mph - N/A   Mostly Cloudy
11:55 PM 30.0 °F - 21.9 °F 72% 30.18 in 10.0 mi Calm Calm - N/A   Overcast